Regional Weather Roundup
Issued by NWS Upton, NY

Current Version | Previous Version | Text Only | Print | Product List | Glossary On
Versions: 1 2 3 4 5 6 7 8 9 10 11 12 13 14 15 16 17 18 19 20 21 22 23 24 25 26 27 28 29 30 31 32 33 34 35 36 37 38 39 40 41 42 43 44 45 46 47 48 49 50
000 ASUS41 KOKX 291205 RWROKX REGIONAL WEATHER ROUNDUP NATIONAL WEATHER SERVICE NEW YORK NY 700 AM EST MON DEC 29 2014 NOTE: "FAIR" INDICATES FEW OR NO CLOUDS BELOW 12,000 FEET WITH NO SIGNIFICANT WEATHER AND/OR OBSTRUCTIONS TO VISIBILITY. NYZ071-072-176-178-NJZ106-104-291300- NEW YORK CITY METRO AREA CITY SKY/WX TMP DP RH WIND PRES REMARKS CENTRAL PARK PTCLDY 38 22 52 NW7 30.20R WCI 33 LAGUARDIA APRT MOCLDY 38 23 55 N8 30.18R WCI 32 KENNEDY INTL MOCLDY 38 22 52 NW6 30.19R WCI 33 NEWARK/LIBERTY MOCLDY 37 23 56 CALM 30.19R BRNX BOT. GARD N/A N/A N/A N/A NW7 30.19R TETERBORO PTCLDY 36 24 62 CALM 30.17R $$ NYZ177-179-078>081-291300- LONG ISLAND NEW YORK CITY SKY/WX TMP DP RH WIND PRES REMARKS FARMINGDALE MOCLDY 37 23 56 NW6 30.17R WCI 32 ISLIP MOCLDY 35 25 66 W6 30.15R WCI 30 SHIRLEY MOCLDY 32 24 72 CALM 30.16R WESTHAMPTON PTCLDY 29 21 72 CALM 30.16R MONTAUK POINT N/A 40 25 55 NW9 30.15R WCI 34 $$ NYZ052-065-067-291300- HUDSON VALLEY CITY SKY/WX TMP DP RH WIND PRES REMARKS WHITE PLAINS CLEAR 34 23 64 NW7 30.14R WCI 28 NEWBURGH CLEAR 32 25 74 W12 30.15R WCI 23 MONTGOMERY PTCLDY 26 23 88 W5 30.15R WCI 20 POUGHKEEPSIE PTCLDY 29 23 78 E3 30.15R ALBANY PTCLDY 30 23 75 W7 30.14R WCI 23 $$ NJZ001-105-106-008-010-013-015-019>022-104-291300- NEW JERSEY CITY SKY/WX TMP DP RH WIND PRES REMARKS NEWARK/LIBERTY MOCLDY 37 23 56 CALM 30.19R TETERBORO PTCLDY 36 24 62 CALM 30.17R CALDWELL PTCLDY 30 24 78 CALM 30.19R MORRISTOWN CLEAR 30 27 86 W3 30.18R SOMERVILLE PTCLDY 30 25 81 CALM 30.16R SUSSEX MOCLDY 27 23 85 CALM 30.16R ANDOVER NOT AVBL TRENTON CLOUDY 36 23 59 N3 30.18R MILLVILLE CLOUDY 40 29 64 N5 30.19R ATLANTIC CITY CLOUDY 39 29 67 N7 30.18R WCI 34 WRIGHTSTOWN CLOUDY 37 28 70 N2 30.16R TOMS RIVER CLOUDY 37 27 65 N3 30.18R BELMAR CLOUDY 37 21 52 N5 30.17R WCI 34 $$ PAZ047>061-062-071-291300- EASTERN PENNSYLVANIA CITY SKY/WX TMP DP RH WIND PRES REMARKS PHILADELPHIA CLOUDY 41 23 48 N5 30.20R ALLENTOWN PTCLDY 29 22 75 CALM 30.17R SCRANTON MOCLDY 31 21 66 W10 30.15R WCI 22 $$ CTZ002-004>006-009-010-012-RIZ004-006-007-MAZ004-011-015-291300- SOUTHERN NEW ENGLAND IN CT CITY SKY/WX TMP DP RH WIND PRES REMARKS BRADLEY INTL MOCLDY 34 23 64 W3 30.13R HARTFORD MOCLDY 29 24 82 SW8 30.14R WCI 21 DANBURY PTCLDY 26 21 81 CALM 30.14R WTRBRY/OXFORD MOCLDY 30 18 59 CALM 30.13R BRIDGEPORT PTCLDY 32 24 72 CALM 30.15S MERIDEN PTCLDY 26 22 84 CALM 30.15R NEW HAVEN MOCLDY 37 24 59 N6 30.13F WCI 32 CHESTER FAIR 32 23 69 W3 30.13R GROTON CLEAR 32 25 75 W3 30.14R WILLIMANTIC PTCLDY 27 22 81 CALM 30.14R IN RI CITY SKY/WX TMP DP RH WIND PRES REMARKS PROVIDENCE PTCLDY 32 22 66 W5 30.12S WCI 27 BLOCK ISLAND PTCLDY 37 23 56 NW9 30.12S WCI 31 WESTERLY PTCLDY 32 24 72 CALM 30.14R IN MA CITY SKY/WX TMP DP RH WIND PRES REMARKS BOSTON PTCLDY 35 22 58 W6 30.11R WCI 30 WORCESTER PTCLDY 27 22 81 SW7 30.07R WCI 19 WESTFIELD PTCLDY 33 22 63 W7 30.12R WCI 27 PROVINCETOWN CLEAR 37 25 60 NW12 30.10R WCI 30 NANTUCKET CLOUDY 38 26 62 NW12 30.10R WCI 30 $$ ANZ330-335-338-340-345-350-353-355-291300- COASTAL MARINE OBSERVATIONS STATION/POSITION TIME SKY/WX TEMP WIND PRES VSBY WAVE AIR SEA DIR/SP/G HT/PER (UTC) (F) (DEG/KT/KT) (MB) (MI) (FT/S) NY HARB ENTRANCE 1200 41 45 330/ 16/ 17 1022.1 2/ 3 4S FIRE IS 1200 47 N/A 2/ 7 20S FIRE ISLAND 1100 42 49 1021.1 3/ 4 23SW MTP 1200 N/A 3/ 8 HUDSON CANYON 1200 44 55 10/ 14/ 16 1020.4 4/ 5 EXECUTION ROCKS 1200 38 42 310/ 8/ 12 N/A WESTERN LI SOUND 1100 39 300/ 10/ 14 N/A 0 CENTRAL LI SOUND 1100 39 44 310/ 12/ 16 N/A 1/ 2 EASTERN LI SOUND NOT AVBL ROBBINS REEF 1200 38 1020.8 $$ >>>>>>>>>>>>>>>>>>>>>>>>>>>> KEY <<<<<<<<<<<<<<<<<<<<<<<<<<< > < > SKY/WX - SKY CONDITION/PRESENT WEATHER < > TMP - TEMPERATURE IN FAHRENHEIT < > DP - DEWPOINT IN FAHRENHEIT < > RH - RELATIVE HUMIDITY IN PERCENT < > WIND - DIRECTION AND SPEED IN MPH < > PRES - MEAN SEA LEVEL PRESSURE IN INCHES OF HG < > WCI - WIND CHILL INDEX < > VSB - VISIBILITY IN MILES < > HX - HEAT INDEX < > TC - TEMPERATURE IN CELSIUS < > VRB - VARIABLE WIND DIRECTION < > < >>>>>>>>>>>>>>>>>>>>>>>>>>>> KEY <<<<<<<<<<<<<<<<<<<<<<<<<<<

USA.gov is the U.S. government's official web portal to all federal, state and local government web resources and services.